To NAV CANADA Home Page Login to a new session Search on AWWS site Feedback and Comments Disclaimer Vers la page française équivalente Tips FAQ What's new on the site To the Forecasts and Observations / NOTAM section To "File a Flight Plan" website Publications and other links Update of the User's profile FIC Telephone Numbers My Weather Data Folder Route Weather Data Regional Weather Data Local Weather Data To the Forecasts and Observations / NOTAM section
Request Generated 06/26/2017 at 22:24:12 UTC . Weather information available at that time is displayed.

METAR/TAF

QUAQTAQ/QC    

LWIS CYHA 262200Z AUTO 33010KT 02/01 A2949=
METAR CYHA 262100Z 01008KT 15SM SCT005 OVC014 03/02 A2947 RMK ST3SC5
LAST STFD OBS/NEXT 271200 UTC SLP983=
METAR CYHA 262000Z 05010KT 15SM OVC005 03/02 A2946 RMK ST8 SLP978=

*** REMARK        : Forecast period has ended; this was the last TAF issued
*** REMARQUE : La période de prévision est échue; ceci était le dernier TAF qui a été émis
TAF AMD CYHA 261634Z 2616/2621 01010G20KT 3/4SM -DZ BR OVC005 TEMPO
2616/2621 P6SM NSW OVC010
RMK NXT FCST WILL BE ISSUED AT 271345Z=
Your time UTC time
Weather data provided by Environment Canada and NAV CANADA